Lapse_Rate
6.7 6.7 6.8 6.4 6.2 6.2 5.9 5.8 5.8 6.0 6.3 6.2 6.1 5.7 5.8 5.6 5.5 5.6 5.4 5.5 5.3 5.1
6.7 6.8 6.7 6.3 5.9 6.2 6.2 6.1 6.0 6.0 5.8 5.6 5.7 5.7 5.7 5.7 5.7 5.7 5.8 5.7 5.6 5.4
7.0 6.8 6.6 6.4 6.2 5.9 5.7 5.8 5.8 5.6 5.5 5.5 5.4 5.4 5.5 5.7 5.6 5.5 5.4 5.4 5.4 5.4
7.1 6.8 6.6 6.3 6.1 5.9 5.7 5.7 5.7 5.8 5.7 5.6 5.6 5.5 5.3 5.3 5.4 5.4 5.5 5.4 5.3 5.3
6.9 6.7 6.5 6.4 6.1 5.9 5.9 5.7 5.6 5.5 5.5 5.4 5.3 5.3 5.3 5.2 5.2 5.2 5.2 5.4 5.4 5.4
6.7 6.5 6.4 6.3 6.1 5.9 5.7 5.5 5.4 5.3 5.2 5.2 5.0 4.9 5.0 5.0 5.0 5.2 5.4 5.5 5.7 5.7
6.4 6.1 6.1 6.1 6.1 6.0 5.9 5.7 5.6 5.4 5.3 5.0 4.9 5.0 5.0 5.2 5.4 5.5 5.7 5.7 5.7 5.8
6.2 6.2 6.2 6.2 6.0 5.9 5.7 5.5 5.4 5.3 5.2 5.2 5.4 5.4 5.5 5.7 5.7 5.9 6.0 6.0 6.1 6.0
6.2 5.9 5.7 5.6 5.5 5.6 5.4 5.2 5.1 5.2 5.7 5.7 5.7 5.8 5.9 5.9 5.9 6.2 6.2 6.1 6.0 6.0
6.0 5.6 5.5 5.6 5.6 5.5 5.3 5.3 5.5 5.5 5.8 5.8 5.9 5.9 5.9 6.0 6.1 6.1 6.0 5.8 5.7 5.5
6.1 5.8 5.8 5.6 5.5 5.3 5.4 5.5 5.8 5.8 5.9 5.9 5.9 6.0 6.1 6.1 6.0 5.8 5.6 5.6 5.5 5.5
6.1 5.8 5.8 5.7 5.6 5.3 5.5 5.9 6.2 6.0 6.0 6.1 6.3 6.2 6.0 5.8 5.6 5.5 5.3 5.3 5.3 5.3
6.3 6.0 5.9 5.6 5.3 5.4 6.0 6.1 6.1 6.0 6.0 6.0 6.2 6.1 5.8 5.6 5.2 5.1 5.1 5.0 5.2 5.3
6.2 6.0 5.7 5.5 5.5 5.9 6.0 6.2 6.1 5.8 6.0 6.0 5.9 5.6 5.3 5.1 4.9 4.8 4.7 4.7 4.7 4.6
Wind_Speed
7 2 1 2 1 1 3 3 6 7 7 5 5 6 5 3 4 3 4 7 6 6
6 0 0 3 2 2 2 2 4 5 6 5 3 2 1 2 3 4 3 3 4 5
5 3 2 4 3 3 3 1 3 3 4 4 4 4 3 2 2 3 5 4 5 3
2 4 4 5 4 4 4 4 4 4 4 5 4 4 4 3 2 4 3 4 6 8
6 6 6 7 6 4 5 5 4 4 4 4 5 4 4 5 5 5 5 7 6 7
10 9 8 6 6 5 5 4 4 4 4 5 4 4 5 5 5 6 7 7 8 8
10 8 8 7 6 5 5 4 4 4 5 5 5 5 5 5 5 5 7 7 7 8
9 8 7 6 5 5 4 4 4 3 3 2 2 5 3 4 4 5 5 5 6 9
9 8 7 6 5 4 3 4 3 3 4 4 6 7 8 5 5 6 4 4 3 5
10 8 7 5 4 4 4 3 4 4 4 4 6 5 5 6 4 3 3 3 2 5
9 8 7 5 4 3 3 3 3 3 4 3 5 3 2 3 1 1 1 1 2 3
8 7 7 6 4 3 4 4 5 4 4 4 6 2 3 5 4 2 4 3 5 5
8 7 7 6 5 4 4 3 2 3 3 2 4 5 1 6 7 6 6 6 6 11
9 8 7 7 6 5 3 3 1 2 2 3 1 3 4 1 7 6 7 8 7 6
Wind_Direction
211 228 312 302 192 178 259 336 349 336 323 298 277 268 268 290 273 299 266 261 245 261
196 126 43 119 118 146 153 29 25 17 15 24 23 1 352 26 357 338 317 333 297 279
179 193 160 130 59 7 338 35 36 41 54 61 42 48 32 57 41 331 323 308 305 315
170 178 135 96 73 78 76 68 64 53 48 47 62 61 63 70 28 5 10 359 11 25
157 123 119 115 104 97 103 90 84 70 70 69 55 57 66 56 58 50 38 40 48 51
126 122 114 115 108 109 101 85 92 91 71 59 63 66 67 66 55 54 45 37 41 44
113 124 132 121 122 120 115 113 96 82 80 77 68 58 50 54 52 56 66 58 58 56
120 118 119 113 109 109 121 97 120 120 98 89 63 37 41 55 51 61 61 56 79 68
134 131 123 125 117 116 107 115 102 74 71 44 60 45 34 37 78 76 67 71 80 125
143 143 135 124 137 133 109 109 88 76 73 76 92 74 56 343 73 67 51 22 358 304
147 132 128 135 137 137 137 126 97 96 96 108 102 119 93 315 331 29 346 323 319 330
151 149 147 160 157 164 159 139 141 147 135 130 121 93 250 287 303 326 284 293 293 325
155 162 162 159 171 146 142 133 143 191 167 91 125 97 318 244 291 298 288 275 246 190
153 152 156 156 150 154 174 117 149 189 167 190 129 94 81 311 283 297 309 304 305 313